Zurück zum Katalog

COSMOS 2585

AktivNavigationPO
NORAD 63288·PAYLOAD·🇷🇺 Russia

Gestartet Mar 16, 2025 von Plesetsk Cosmodrome

Loading…

Nächste Überflüge (nächste 24 Stunden)

TLE

AktuellSource: Space-Track

Epoche: Sep 14, 2026, 04:05 UTC

1 63288U 25054A   26257.17041969  .00000026  00000-0  11962-3 0  9992
2 63288  82.4974  23.2404 0024490 198.9862 161.0307 12.42870846 67913

Verfolge COSMOS 2585 in Echtzeit mit AllMySat

Download on the App Store